Regional Weather Roundup
Issued by NWS Kansas City/Pleasant Hill, MO

Home | Current Version | Previous Version | Text Only | Print | Product List | Glossary On
Versions: 1 2 3 4 5 6 7 8 9 10 11 12 13 14 15 16 17 18 19 20 21 22 23 24 25 26 27 28 29 30 31 32 33 34 35 36 37 38 39 40 41 42 43 44 45 46 47 48 49 50
000
ASUS43 KEAX 270911
RWREAX

WEATHER ROUNDUP FOR EASTERN KANSAS AND NORTHWEST MISSOURI
NATIONAL WEATHER SERVICE KANSAS CITY/PLEASANT HILL MO
300 AM CST THU NOV 27 2014

KSZ040-057-103>105-MOZ028-029-037-043-271000-
...KANSAS CITY METROPOLITAN AREA...

CITY           SKY/WX    TMP DP  RH WIND       PRES   REMARKS
K.C. INTL      CLOUDY    26  21  81 NW10      30.46S WCI  16
K.C. DOWNTOWN  CLOUDY    29  21  72 NW8       30.47S WCI  21
LEES SUMMIT    CLOUDY    27  21  78 NW9       30.46R WCI  18
OLATHE - IXD   CLOUDY    26  20  77 NW14      30.48R WCI  14
OLATHE - OJC   CLOUDY    27  21  78 NW10      30.46R WCI  17
LAWRENCE       CLOUDY    25  18  74 N9        30.50R WCI  15

$$

MOZ001>008-011>017-020>025-030>033-038>040-044>046-053-054-271000-
...NORTHERN AND CENTRAL MISSOURI...

CITY           SKY/WX    TMP DP  RH WIND       PRES   REMARKS
ST. JOSEPH     CLOUDY    26  20  77 NW17      30.49R WCI  13
MOSBY          CLOUDY    28  23  80 NW12G17   30.48R WCI  18
WARRENSBURG    CLOUDY    30  23  74 NW9       30.46R WCI  22
WHITEMAN AFB   CLOUDY    29  23  78 NW13      30.45R WCI  18
CLINTON        CLOUDY    32  27  80 NW13      30.45R WCI  22
SEDALIA        CLOUDY    30  22  72 NW14G24   30.44R WCI  19
WARSAW         NOT AVBL
MARSHALL       CLOUDY    32  27  80 NW16      30.44R WCI  21
CHILLICOTHE      N/A     28  22  78 NW7       30.45R WCI  21
MOBERLY        CLOUDY    32  25  74 NW8       30.40R WCI  25
KIRKSVILLE     CLOUDY    27  25  92 NW14      30.39R FOG     WCI  16

$$

MOZ041-047>049-056>058-063>065-088>090-097-271000-
...EASTERN AND SOUTHERN MISSOURI...

CITY           SKY/WX    TMP DP  RH WIND       PRES   REMARKS
ST. LOUIS INTL LGT SNOW  32  27  81 N8        30.34R FOG     WCI  25
SPIRIT OF STL  CLOUDY    32  28  85 NW7       30.34R WCI  26
COLUMBIA       CLOUDY    32  28  85 NW12      30.39R WCI  23
JEFFERSON CITY CLOUDY    33  28  81 NW9       30.40R WCI  25
ROLLA          CLOUDY    31  29  92 NW8       30.33R WCI  23
LEBANON        CLOUDY    30  27  86 NW15G21   30.38R WCI  19
OSAGE BEACH    CLOUDY    32  27  80 NW13      30.40R WCI  22
SPRINGFIELD    CLOUDY    30  24  78 NW17      30.40R WCI  18
BRANSON        CLOUDY    32  23  69 NW10      30.41R WCI  24
NEVADA         CLOUDY    28  23  80 NW9       30.47S WCI  20
JOPLIN         MOCLDY    27  22  81 NW5       30.46R WCI  22
WEST PLAINS    CLOUDY    32  25  75 NW12      30.34R WCI  23

$$

IAZ060-094-KSZ022-034>040-054-083-096-NEZ052-066-093-271000-
...KANSAS...SOUTHEAST NEBRASKA AND IOWA...

CITY           SKY/WX    TMP DP  RH WIND       PRES   REMARKS
TOPEKA         PTCLDY    25  18  74 N8        30.49S WCI  16
MANHATTAN      CLEAR     16  14  92 CALM      30.49F
EMPORIA        CLEAR     20  17  88 N6        30.46S WCI  12
CHANUTE        CLEAR     24  20  84 N7        30.47R WCI  16
WICHITA        PTCLDY    28  18  66 N5        30.47R WCI  23
OMAHA          PTCLDY    16  11  80 N8        30.52R WCI   5
LINCOLN        PTCLDY    18  11  74 NW5       30.52R WCI  11
FALLS CITY     CLOUDY    23  18  81 N8        30.48S WCI  14
LAMONI         CLOUDY    23  19  85 N12       30.43R WCI  12
DES MOINES     FLURRIES  18  12  77 NW12      30.45R WCI   5

$$



USA.gov is the U.S. government's official web portal to all federal, state and local government web resources and services.